This demonstration page uses our WeatherBlox Daily Observations layout. Learn more.

Left ArrowRight Arrow

Hourly Observations for February 24, 2015

Temp ( °F °C ) Dew Point ( °F °C ) Humidity (%) Winds ( mph kmh ) Pressure ( in mb ) Visibility ( mi km ) Precip ( " mm )
12:53 am 00:53 Cloudy 26 -3.3 19 -7.2 75 75 SSE 3 6 30.33 1027 10 16 0.00 0.00
1:53 am 01:53 Cloudy 26 -3.3 19 -7.2 75 75 Calm 30.30 1026 10 16 0.00 0.00
2:53 am 02:53 Cloudy 26 -3.3 19 -7.2 75 75 Calm 30.28 1026 10 16 0.00 0.00
3:53 am 03:53 Cloudy 26 -3.3 19 -7.2 75 75 Calm 30.26 1025 10 16 0.00 0.00
4:53 am 04:53 Cloudy 26 -3.3 19 -7.2 75 75 Calm 30.25 1024 10 16 0.00 0.00
5:53 am 05:53 Cloudy 26 -3.3 19 -7.2 75 75 NW 3 6 30.25 1025 10 16 0.00 0.00
6:53 am 06:53 Cloudy 26 -3.3 19 -7.2 75 75 Calm 30.25 1024 10 16 0.00 0.00
7:53 am 07:53 Cloudy 26 -3.3 20 -6.7 78 78 NNW 5 7 30.26 1025 10 16 0.00 0.00
8:53 am 08:53 Cloudy 27 -2.8 20 -6.7 75 75 NNE 6 9 30.26 1025 10 16 0.00 0.00
9:53 am 09:53 Cloudy 28 -2.2 21 -6.1 75 75 NW 3 6 30.27 1025 10 16 0.00 0.00
10:53 am 10:53 Cloudy 28 -2.2 21 -6.1 75 75 Calm 30.26 1025 10 16 0.00 0.00
11:51 am 11:51 Cloudy 30 -1 21 -6 69 69 Calm 30.30 1026 10 16 0.00 0.00
11:53 am 11:53 Cloudy 30 -1.1 21 -6.1 69 69 Calm 30.22 1023 10 16 0.00 0.00
12:53 pm 12:53 Cloudy 32 0 23 -5 69 69 Calm 30.16 1021 10 16 0.00 0.00
1:53 pm 13:53 Cloudy 34 1.1 24 -4.4 67 67 SSE 3 6 30.09 1019 10 16 0.00 0.00
2:53 pm 14:53 Mostly Cloudy 36 2.2 24 -4.4 62 62 Calm 30.04 1017 10 16 0.00 0.00
3:01 pm 15:01 Partly Cloudy 37 2.8 25 -3.9 62 62 VRB 5 7 30.06 1018 10 16 0.00 0.00
3:53 pm 15:53 Partly Cloudy 39 3.9 25 -3.9 57 57 WSW 3 6 29.99 1016 10 16 0.00 0.00
4:53 pm 16:53 Sunny 38 3.3 25 -3.9 60 60 SSW 5 7 29.96 1015 10 16 0.00 0.00
5:53 pm 17:53 Sunny 38 3.3 26 -3.3 62 62 W 5 7 29.96 1015 10 16 0.00 0.00
6:53 pm 18:53 Clear 38 3.3 25 -3.9 60 60 W 6 9 29.93 1014 10 16 0.00 0.00
7:53 pm 19:53 Clear 38 3.3 27 -2.8 65 65 SSW 7 11 29.96 1015 10 16 0.00 0.00
8:53 pm 20:53 Clear 33 0.6 26 -3.3 75 75 S 10 17 29.97 1015 10 16 0.00 0.00
9:53 pm 21:53 Mostly Clear 32 0 26 -3.3 79 79 WSW 10 17 29.98 1015 10 16 0.00 0.00
10:53 pm 22:53 Mostly Clear 33 0.6 27 -2.8 78 78 WSW 12 19 29.99 1016 10 16 0.00 0.00
11:53 pm 23:53 Clear 34 1.1 27 -2.8 76 76 W 10 17 29.99 1016 10 16 0.00 0.00

Powered by AerisWeather